owner,sensor,date,latitude,longitude,vertical_datum,wind_speed,wind_to_direction,wind_speed_of_gust,qcFlag 
NDBC,ioos:station:wmo:42036:1,2010-05-01T01:00:00Z,28.5000,-84.5170,5.0,6.7,140.0,,'1111122,1111122,1111122' 
NDBC,ioos:station:wmo:42036:1,2010-05-01T04:00:00Z,28.5000,-84.5170,5.0,7.7,140.0,,'1111122,1111122,1111122' 
NDBC,ioos:station:wmo:42036:1,2010-05-01T06:00:00Z,28.5000,-84.5170,5.0,4.6,140.0,,'1111122,1111122,1111122' 
NDBC,ioos:station:wmo:42036:1,2010-05-01T07:00:00Z,28.5000,-84.5170,5.0,4.6,140.0,,'1111122,1111122,1111122' 
NDBC,ioos:station:wmo:42036:1,2010-05-01T08:00:00Z,28.5000,-84.5170,5.0,4.6,140.0,,'1111122,1111122,1111122' 
NDBC,ioos:station:wmo:42036:1,2010-05-01T09:00:00Z,28.5000,-84.5170,5.0,3.6,130.0,,'1111122,1111122,1111122' 
NDBC,ioos:station:wmo:42036:1,2010-05-01T12:00:00Z,28.5000,-84.5170,5.0,2.6,170.0,,'1111122,1111122,1111122' 
NDBC,ioos:station:wmo:42036:1,2010-05-01T13:00:00Z,28.5000,-84.5170,5.0,1.5,140.0,,'1111122,1111122,1111122' 
NDBC,ioos:station:wmo:42036:1,2010-05-01T14:00:00Z,28.5000,-84.5170,5.0,3.6,140.0,,'1111122,1111122,1111122' 
NDBC,ioos:station:wmo:42036:1,2010-05-01T15:00:00Z,28.5000,-84.5170,5.0,5.7,130.0,,'1111122,1111122,1111122' 
NDBC,ioos:station:wmo:42036:1,2010-05-01T16:00:00Z,28.5000,-84.5170,5.0,5.7,120.0,,'1111122,1111122,1111122' 
NDBC,ioos:station:wmo:42036:1,2010-05-01T17:00:00Z,28.5000,-84.5170,5.0,6.7,110.0,,'1111122,1111122,1111122' 
NDBC,ioos:station:wmo:42036:1,2010-05-01T18:00:00Z,28.5000,-84.5170,5.0,7.7,120.0,,'1111122,1111122,1111122' 
NDBC,ioos:station:wmo:42036:1,2010-05-01T19:00:00Z,28.5000,-84.5170,5.0,6.7,130.0,,'1111122,1111122,1111122' 
NDBC,ioos:station:wmo:42036:1,2010-05-01T20:00:00Z,28.5000,-84.5170,5.0,7.7,140.0,,'1111122,1111122,1111122' 
NDBC,ioos:station:wmo:42036:1,2010-05-01T21:00:00Z,28.5000,-84.5170,5.0,9.8,150.0,,'1111122,1111122,1111122' 
NDBC,ioos:station:wmo:42036:1,2010-05-01T22:00:00Z,28.5000,-84.5170,5.0,9.8,150.0,,'1111122,1111122,1111122' 
NDBC,ioos:station:wmo:42036:1,2010-05-01T23:00:00Z,28.5000,-84.5170,5.0,7.7,160.0,,'1111122,1111122,1111122' 
NDBC,ioos:station:wmo:42036:1,2010-05-02T01:00:00Z,28.5000,-84.5170,5.0,6.7,160.0,,'1111122,1111122,1111122' 
NDBC,ioos:station:wmo:42036:1,2010-05-02T05:00:00Z,28.5000,-84.5170,5.0,7.7,140.0,,'1111122,1111122,1111122' 
NDBC,ioos:station:wmo:42036:1,2010-05-02T07:00:00Z,28.5000,-84.5170,5.0,3.6,180.0,,'1111122,1111122,1111122' 
NDBC,ioos:station:wmo:42036:1,2010-05-02T08:00:00Z,28.5000,-84.5170,5.0,3.6,160.0,,'1111122,1111122,1111122' 
NDBC,ioos:station:wmo:42036:1,2010-05-02T09:00:00Z,28.5000,-84.5170,5.0,3.6,170.0,,'1111122,1111122,1111122' 
NDBC,ioos:station:wmo:42036:1,2010-05-02T10:00:00Z,28.5000,-84.5170,5.0,2.6,200.0,,'1111122,1111122,1111122' 
NDBC,ioos:station:wmo:42036:1,2010-05-02T11:00:00Z,28.5000,-84.5170,5.0,1.5,220.0,,'1111122,1111122,1111122' 
NDBC,ioos:station:wmo:42036:1,2010-05-02T12:00:00Z,28.5000,-84.5170,5.0,0.5,230.0,,'1111122,1111122,1111122' 
NDBC,ioos:station:wmo:42036:1,2010-05-02T13:00:00Z,28.5000,-84.5170,5.0,0.5,130.0,,'1111122,1111122,1111122' 
NDBC,ioos:station:wmo:42036:1,2010-05-02T15:00:00Z,28.5000,-84.5170,5.0,3.6,300.0,,'1111122,1111122,1111122' 
NDBC,ioos:station:wmo:42036:1,2010-05-02T16:00:00Z,28.5000,-84.5170,5.0,8.7,320.0,,'1111122,1111122,1111122' 
NDBC,ioos:station:wmo:42036:1,2010-05-02T17:00:00Z,28.5000,-84.5170,5.0,7.7,320.0,,'1111122,1111122,1111122' 
NDBC,ioos:station:wmo:42036:1,2010-05-02T18:00:00Z,28.5000,-84.5170,5.0,6.7,310.0,,'1111122,1111122,1111122' 
NDBC,ioos:station:wmo:42036:1,2010-05-02T22:00:00Z,28.5000,-84.5170,5.0,1.5,350.0,,'1111122,1111122,1111122' 
NDBC,ioos:station:wmo:42036:1,2010-05-03T00:00:00Z,28.5000,-84.5170,5.0,1.5,140.0,,'1111122,1111122,1111122' 
NDBC,ioos:station:wmo:42036:1,2010-05-03T01:00:00Z,28.5000,-84.5170,5.0,0.5,200.0,,'1111122,1111122,1111122' 
NDBC,ioos:station:wmo:42036:1,2010-05-03T03:00:00Z,28.5000,-84.5170,5.0,1.5,240.0,,'1111122,1111122,1111122' 
NDBC,ioos:station:wmo:42036:1,2010-05-03T05:00:00Z,28.5000,-84.5170,5.0,3.6,270.0,,'1111122,1111122,1111122' 
NDBC,ioos:station:wmo:42036:1,2010-05-03T07:00:00Z,28.5000,-84.5170,5.0,3.6,320.0,,'1111122,1111122,1111122' 
NDBC,ioos:station:wmo:42036:1,2010-05-03T09:00:00Z,28.5000,-84.5170,5.0,2.6,350.0,,'1111122,1111122,1111122' 
NDBC,ioos:station:wmo:42036:1,2010-05-03T10:00:00Z,28.5000,-84.5170,5.0,2.6,60.0,,'1111122,1111122,1111122' 
NDBC,ioos:station:wmo:42036:1,2010-05-03T11:00:00Z,28.5000,-84.5170,5.0,2.6,70.0,,'1111122,1111122,1111122' 
NDBC,ioos:station:wmo:42036:1,2010-05-03T12:00:00Z,28.5000,-84.5170,5.0,3.6,70.0,,'1111122,1111122,1111122' 
NDBC,ioos:station:wmo:42036:1,2010-05-03T15:00:00Z,28.5000,-84.5170,5.0,5.7,80.0,,'1111122,1111122,1111122' 
NDBC,ioos:station:wmo:42036:1,2010-05-03T16:00:00Z,28.5000,-84.5170,5.0,6.7,90.0,,'1111122,1111122,1111122' 
NDBC,ioos:station:wmo:42036:1,2010-05-03T17:00:00Z,28.5000,-84.5170,5.0,5.7,100.0,,'1111122,1111122,1111122' 
NDBC,ioos:station:wmo:42036:1,2010-05-03T20:00:00Z,28.5000,-84.5170,5.0,0.5,10.0,,'1111122,1111122,1111122' 
NDBC,ioos:station:wmo:42036:1,2010-05-03T21:00:00Z,28.5000,-84.5170,5.0,0.5,120.0,,'1111122,1111122,1111122' 
NDBC,ioos:station:wmo:42036:1,2010-05-03T22:00:00Z,28.5000,-84.5170,5.0,1.5,180.0,,'1111122,1111122,1111122' 
NDBC,ioos:station:wmo:42036:1,2010-05-03T23:00:00Z,28.5000,-84.5170,5.0,1.5,190.0,,'1111122,1111122,1111122' 
NDBC,ioos:station:wmo:42036:1,2010-05-04T00:00:00Z,28.5000,-84.5170,5.0,2.6,190.0,,'1111122,1111122,1111122' 
NDBC,ioos:station:wmo:42036:1,2010-05-04T01:00:00Z,28.5000,-84.5170,5.0,3.6,230.0,,'1111122,1111122,1111122' 
NDBC,ioos:station:wmo:42036:1,2010-05-04T02:00:00Z,28.5000,-84.5170,5.0,3.6,220.0,,'1111122,1111122,1111122' 
NDBC,ioos:station:wmo:42036:1,2010-05-04T05:00:00Z,28.5000,-84.5170,5.0,3.6,230.0,,'1111122,1111122,1111122' 
NDBC,ioos:station:wmo:42036:1,2010-05-04T07:00:00Z,28.5000,-84.5170,5.0,10.8,10.0,,'1111122,1111122,1111122' 
NDBC,ioos:station:wmo:42036:1,2010-05-04T08:00:00Z,28.5000,-84.5170,5.0,10.8,10.0,,'1111122,1111122,1111122' 
NDBC,ioos:station:wmo:42036:1,2010-05-04T09:00:00Z,28.5000,-84.5170,5.0,7.7,30.0,,'1111122,1111122,1111122' 
NDBC,ioos:station:wmo:42036:1,2010-05-04T10:00:00Z,28.5000,-84.5170,5.0,6.7,30.0,,'1111122,1111122,1111122' 
NDBC,ioos:station:wmo:42036:1,2010-05-04T11:00:00Z,28.5000,-84.5170,5.0,4.6,40.0,,'1111122,1111122,1111122' 
NDBC,ioos:station:wmo:42036:1,2010-05-04T12:00:00Z,28.5000,-84.5170,5.0,3.6,40.0,,'1111122,1111122,1111122' 
NDBC,ioos:station:wmo:42036:1,2010-05-04T13:00:00Z,28.5000,-84.5170,5.0,2.6,20.0,,'1111122,1111122,1111122' 
 
DISCLAIMER: The Gulf of Mexico Coastal and Ocean Observing (GCOOS) Data Portal aggregates data from the regional data providers for the convenience of all data users. Data published on this website should not be used for navigation or certain other uses as we cannot guarantee data accuracy or availability. The data and delivery services are provided 'as is' without warranty of any kind. Data Source: Gulf of Mexico Coastal Ocean Observing System Data Portal (http://data.gcoos.org/) 
